View from above orbital plane
|
View from above satellite
|
Ground track
|
The orbit data is extracted from the following two-line orbital elements,
1 18959U 88020B 21059.41210171 .00000088 00000-0 78177-5 0 9995
2 18959 82.5348 87.1716 0016829 2.7389 357.3915 14.83467860759965
Epoch (UTC): | 28 February 2021 09:53:25 |
Eccentricity: | 0.0016829 |
inclination: | 82.5348° |
perigee height: | 606 km |
apogee height: | 630 km |
right ascension of ascending node: | 87.1716° |
argument of perigee: | 2.7389° |
revolutions per day: | 14.83467860 |
mean anomaly at epoch: | 357.3915° |
orbit number at epoch: | 75996 |
The dashed part of the orbit path shows where the satellite is in the earth's shadow,
|
|